TimeBST,TemperatureF,Dew PointF,Humidity,Sea Level PressureIn,VisibilityMPH,Wind Direction,Wind SpeedMPH,Gust SpeedMPH,PrecipitationIn,Events,Conditions,WindDirDegrees,DateUTC
12:20 AM,57.2,55.4,94,30.39,6.2,SW,6.9,-,N/A,,Mostly Cloudy,230,2013-07-06 23:20:00
12:50 AM,57.2,55.4,94,30.39,6.2,WSW,4.6,-,N/A,,Mostly Cloudy,250,2013-07-06 23:50:00
1:20 AM,57.2,53.6,88,30.42,6.2,West,4.6,-,N/A,,Mostly Cloudy,260,2013-07-07 00:20:00
1:50 AM,57.2,53.6,88,30.42,6.2,West,4.6,-,N/A,,Mostly Cloudy,260,2013-07-07 00:50:00
2:20 AM,57.2,53.6,88,30.42,6.2,WSW,3.5,-,N/A,,Overcast,250,2013-07-07 01:20:00
2:50 AM,57.2,51.8,82,30.42,6.2,West,2.3,-,N/A,,Mostly Cloudy,260,2013-07-07 01:50:00
3:20 AM,55.4,51.8,88,30.42,6.2,SW,3.5,-,N/A,,Mostly Cloudy,230,2013-07-07 02:20:00
3:50 AM,55.4,51.8,88,30.42,6.2,West,3.5,-,N/A,,Mostly Cloudy,260,2013-07-07 02:50:00
4:20 AM,55.4,50.0,82,30.45,6.2,Variable,2.3,-,N/A,,Mostly Cloudy,0,2013-07-07 03:20:00
4:50 AM,55.4,50.0,82,30.45,6.2,Variable,3.5,-,N/A,,Mostly Cloudy,0,2013-07-07 03:50:00
5:20 AM,53.6,48.2,82,30.45,6.2,West,4.6,-,N/A,,Mostly Cloudy,260,2013-07-07 04:20:00
5:50 AM,53.6,48.2,82,30.45,6.2,SW,2.3,-,N/A,,Scattered Clouds,220,2013-07-07 04:50:00
6:50 AM,55.4,48.2,77,30.48,6.2,West,4.6,-,N/A,,Partly Cloudy,260,2013-07-07 05:50:00
7:20 AM,55.4,48.2,77,30.51,6.2,West,5.8,-,N/A,,Partly Cloudy,260,2013-07-07 06:20:00
7:50 AM,55.4,48.2,77,30.51,6.2,West,6.9,-,N/A,,Partly Cloudy,260,2013-07-07 06:50:00
8:20 AM,57.2,48.2,72,30.51,6.2,West,8.1,-,N/A,,Partly Cloudy,260,2013-07-07 07:20:00
8:50 AM,57.2,48.2,72,30.51,6.2,West,8.1,-,N/A,,Partly Cloudy,260,2013-07-07 07:50:00
9:20 AM,59.0,48.2,67,30.51,6.2,West,8.1,-,N/A,,Partly Cloudy,270,2013-07-07 08:20:00
9:50 AM,60.8,50.0,68,30.54,6.2,West,5.8,-,N/A,,Partly Cloudy,280,2013-07-07 08:50:00
10:20 AM,60.8,50.0,68,30.54,6.2,NW,4.6,-,N/A,,Partly Cloudy,310,2013-07-07 09:20:00
10:50 AM,62.6,50.0,63,30.54,-9999.0,NW,4.6,-,N/A,,Clear,310,2013-07-07 09:50:00
11:20 AM,64.4,51.8,64,30.51,-9999.0,NW,4.6,-,N/A,,Clear,310,2013-07-07 10:20:00
11:50 AM,64.4,51.8,64,30.54,-9999.0,NNW,4.6,-,N/A,,Clear,340,2013-07-07 10:50:00
12:20 PM,66.2,53.6,64,30.54,6.2,NNW,4.6,-,N/A,,Partly Cloudy,340,2013-07-07 11:20:00
12:50 PM,66.2,51.8,60,30.54,6.2,North,4.6,-,N/A,,Partly Cloudy,350,2013-07-07 11:50:00
1:20 PM,69.8,53.6,56,30.54,6.2,Variable,3.5,-,N/A,,Partly Cloudy,0,2013-07-07 12:20:00
1:50 PM,69.8,53.6,56,30.54,6.2,NNW,4.6,-,N/A,,Partly Cloudy,340,2013-07-07 12:50:00
2:20 PM,68.0,55.4,64,30.51,6.2,NNE,6.9,-,N/A,,Partly Cloudy,20,2013-07-07 13:20:00
2:50 PM,68.0,53.6,60,30.54,6.2,North,4.6,-,N/A,,Partly Cloudy,10,2013-07-07 13:50:00
3:20 PM,66.2,53.6,64,30.54,6.2,NE,6.9,-,N/A,,Partly Cloudy,50,2013-07-07 14:20:00
3:50 PM,66.2,51.8,60,30.54,6.2,NE,8.1,-,N/A,,Partly Cloudy,50,2013-07-07 14:50:00
4:20 PM,66.2,51.8,60,30.54,6.2,NE,9.2,-,N/A,,Partly Cloudy,40,2013-07-07 15:20:00
4:50 PM,66.2,51.8,60,30.54,6.2,NE,9.2,-,N/A,,Partly Cloudy,50,2013-07-07 15:50:00
5:20 PM,66.2,51.8,60,30.57,6.2,NNE,8.1,-,N/A,,Partly Cloudy,30,2013-07-07 16:20:00
5:50 PM,60.8,51.8,72,30.57,6.2,NNE,11.5,-,N/A,,Partly Cloudy,30,2013-07-07 16:50:00
6:20 PM,59.0,51.8,77,30.57,6.2,NE,11.5,-,N/A,,Partly Cloudy,40,2013-07-07 17:20:00
6:50 PM,59.0,53.6,82,30.57,6.2,NNE,11.5,-,N/A,,Partly Cloudy,20,2013-07-07 17:50:00
7:20 PM,57.2,51.8,82,30.60,6.2,NNE,12.7,-,N/A,,Partly Cloudy,20,2013-07-07 18:20:00
7:50 PM,57.2,51.8,82,30.60,6.2,NNE,10.4,-,N/A,,Partly Cloudy,30,2013-07-07 18:50:00
8:20 PM,55.4,51.8,88,30.60,6.2,NE,9.2,-,N/A,,Partly Cloudy,40,2013-07-07 19:20:00
8:50 PM,53.6,50.0,88,30.60,6.2,NE,5.8,-,N/A,,Partly Cloudy,40,2013-07-07 19:50:00
9:20 PM,53.6,50.0,88,30.63,6.2,NNE,4.6,-,N/A,,Partly Cloudy,30,2013-07-07 20:20:00
9:50 PM,51.8,50.0,94,30.63,6.2,NE,4.6,-,N/A,,Partly Cloudy,50,2013-07-07 20:50:00
10:20 PM,51.8,48.2,88,30.63,6.2,ENE,2.3,-,N/A,,Partly Cloudy,60,2013-07-07 21:20:00
10:50 PM,48.2,46.4,93,30.63,6.2,Calm,Calm,-,N/A,,Unknown,0,2013-07-07 21:50:00
11:20 PM,48.2,46.4,93,30.63,6.2,SSW,2.3,-,N/A,,Partly Cloudy,210,2013-07-07 22:20:00
11:50 PM,46.4,46.4,100,30.63,6.2,SSW,2.3,-,N/A,,Mostly Cloudy,200,2013-07-07 22:50:00